This is the latest recevied weather packets stored in our database for station/object K0QJ. If no packets are shown the sender has not sent any weather packets the latest 10 day(s).
| Time | Temp. | Humidity | Pressure | Rain* | Wind** | Luminosity | Snow |
|---|---|---|---|---|---|---|---|
| 1777332362 | 18.33° C | 72% | 1006.7 hPa | 0 mm | - | 30 W/m² | - |
| 1777332059 | 18.89° C | 73% | 1006.3 hPa | 0 mm | - | 35 W/m² | - |
| 1777331757 | 18.89° C | 72% | 1006.4 hPa | 0 mm | - | 36 W/m² | - |
| 1777331453 | 18.89° C | 73% | 1006.5 hPa | 0 mm | - | 44 W/m² | - |
| 1777331151 | 19.44° C | 73% | 1006.3 hPa | 0 mm | - | 41 W/m² | - |
| 1777330848 | 20° C | 73% | 1006 hPa | 0 mm | - | 52 W/m² | - |
| 1777330544 | 20° C | 73% | 1005.6 hPa | 0 mm | - | 67 W/m² | - |
| 1777330242 | 20.56° C | 72% | 1005.8 hPa | 0 mm | - | 53 W/m² | - |
| 1777329940 | 20.56° C | 71% | 1005.6 hPa | 0 mm | - | 65 W/m² | - |
| 1777329639 | 20.56° C | 71% | 1005.5 hPa | 0 mm | - | 102 W/m² | - |
| 1777329337 | 20.56° C | 70% | 1005.5 hPa | 0 mm | - | 48 W/m² | - |
| 1777329033 | 21.11° C | 69% | 1005.3 hPa | 0 mm | - | 91 W/m² | - |
| 1777328731 | 21.67° C | 69% | 1005.2 hPa | 0 mm | - | 83 W/m² | - |
| 1777328429 | 21.67° C | 69% | 1004.9 hPa | 0 mm | - | 99 W/m² | - |
| 1777328127 | 22.22° C | 68% | 1004.8 hPa | 0 mm | - | 59 W/m² | - |
| 1777327826 | 21.67° C | 69% | 1004.8 hPa | 0 mm | - | 65 W/m² | - |
| 1777327522 | 21.67° C | 69% | 1004.5 hPa | 0 mm | - | 92 W/m² | - |
| 1777327220 | 21.67° C | 68% | 1004.4 hPa | 0 mm | - | 142 W/m² | - |
| 1777326917 | 21.67° C | 68% | 1004.3 hPa | 0 mm | - | 97 W/m² | - |
| 1777326614 | 22.22° C | 67% | 1004.4 hPa | 0 mm | - | 161 W/m² | - |
| 1777326311 | 22.22° C | 66% | 1004.1 hPa | 0 mm | - | 180 W/m² | - |
| 1777326008 | 21.67° C | 67% | 1004.2 hPa | 0 mm | - | 248 W/m² | - |
| 1777325706 | 21.67° C | 66% | 1003.9 hPa | 0 mm | - | 115 W/m² | - |
| 1777325404 | 21.67° C | 66% | 1004.1 hPa | 0 mm | - | 161 W/m² | - |
| 1777325102 | 21.67° C | 67% | 1004 hPa | 0 mm | - | 147 W/m² | - |
* Rain latest hour (hover to see other rain measurements)
** Current wind speed in m/s (hover to see current wind gust speed)